Location: Staunton
(38.1490°N, 79.0720°W)
Time: 13:53:16
(UTC-05:00)

ISS - Pass Details

Date: 11 December 2017
Orbit: 402 x 407 km, 51.6° (Epoch: 11 December)

Event Time Altitude Azimuth Distance (km) Brightness Sun altitude
Rises 18:22:30 0° 318° (NW) 2,328 0.4 -16.4°
Reaches altitude 10° 18:25:00 10° 337° (NNW) 1,465 -0.9 -16.8°
Enters shadow 18:26:30 17° 2° (N) 1,110 -1.8 -17.1°
